Regional Weather Roundup
Issued by NWS

Home | Current Version | Previous Version | Graphics & Text | Print | Product List | Glossary On
Versions: 1 2 3 4 5 6 7 8 9 10 11 12 13 14 15 16 17 18 19 20 21 22 23 24 25 26 27 28 29 30 31 32 33 34 35 36 37 38 39 40 41 42 43 44 45 46 47 48 49 50
000
ASUS43 KDTX 282010
RWRMI
MICHIGAN HOURLY REGIONAL WEATHER ROUNDUP
NATIONAL WEATHER SERVICE DETROIT/PONTIAC MI
ISSUED BY NATIONAL WEATHER SERVICE GRAND RAPIDS MI
400 PM EDT WED JUN 28 2017

NOTE: "FAIR" INDICATES FEW OR NO CLOUDS BELOW 12,000 FEET WITH NO
SIGNIFICANT WEATHER AND/OR OBSTRUCTION TO VISIBILITY.

MIZ047>049-052>055-059>063-066>070-074>076-081>083-282100-
SOUTHEAST LOWER MICHIGAN

CITY           SKY/WX    TMP DP  RH WIND       PRES   REMARKS
ADRIAN         CLOUDY    79  50  36 SW16G31   30.05
ALMA           LGT RAIN  72  53  50 S12G22    29.94F
ANN ARBOR      CLOUDY    75  52  44 S9        30.03F
BAD AXE        CLOUDY    74  48  40 S15G22    29.99F
DETROIT CITY   CLOUDY    76  51  41 SW13      30.03F
DETROIT        CLOUDY    78  50  37 SW14G25   30.04F
FLINT          PTSUNNY   76  51  41 S12G23    30.00F
GROSSE ILE     CLOUDY    74  56  52 S13       30.03F
HILLSDALE      PTSUNNY   73  48  40 S12G21    30.03F
HOWELL         PTSUNNY   75  45  34 SW9G20    30.02F

CITY           SKY/WX    TMP DP  RH WIND       PRES   REMARKS
JACKSON        MOSUNNY   76  50  40 SW16      30.02F
LANSING        CLOUDY    76  51  41 S15G25    29.97F
MASON          MOSUNNY   74  53  46 SW7       30.00F
MONROE         CLOUDY    76  49  38 SW12G17   30.04F
MT. CLEMENS    CLOUDY    77  51  39 S13       30.02F
PONTIAC        CLOUDY    76  47  35 S13       30.01F
PORT HOPE        N/A     75  50  41 S9        29.97F
PORT HURON     CLOUDY    73  46  38 S14G22    30.03F
TRI CITIES     CLOUDY    75  54  47 S10       29.96F
YPSILANTI      CLOUDY    80  50  34 SW16G24   30.04F
$$
MIZ043>046-050>051-056>058-064>065-071>073-077>080-282100-
SOUTHWEST LOWER MICHIGAN

CITY           SKY/WX    TMP DP  RH WIND       PRES   REMARKS
BATTLE CREEK   LGT RAIN  73  54  51 S20G29    29.94F
BENTON HARBOR  CLOUDY    74  54  49 S17G23    29.91S
BIG RAPIDS     LGT RAIN  69  54  59 S7        29.93R
COLDWATER      CLOUDY    74  49  41 S6G17     30.01F
HOLLAND        CLOUDY    72  58  61 S12       29.91F
GRAND RAPIDS   CLOUDY    71  57  61 S13       29.92F
KALAMAZOO      LGT RAIN  73  53  49 S12G22    29.91F
MARSHALL       CLOUDY    74  52  45 S17G24    29.98F
MOUNT PLEASANT CLOUDY    73  51  45 S13G21    29.93F
MUSKEGON       CLOUDY    71  58  63 S9        29.91S
STURGIS        CLOUDY    73  54  50 S16G23    29.95F
$$
MIZ016>042-282100-
NORTHERN LOWER MICHIGAN

CITY           SKY/WX    TMP DP  RH WIND       PRES   REMARKS
ALPENA         CLOUDY    76  53  44 S15G21    29.91F
BEAVER ISLAND  LGT RAIN  63  59  88 S10G20    29.87S
BELLAIRE       LGT RAIN  66  59  77 S13G18    29.88S
CADILLAC       LGT RAIN  63  60  88 S6        29.92S
CHARLEVOIX     LGT RAIN  66  58  75 S9        29.90S
GAYLORD        LGT RAIN  67  54  63 S12       29.90F
HOUGHTON LAKE  LGT RAIN  65  58  78 S6        29.93F
MANISTEE       LGT RAIN  63  61  94 S10       29.86F
OSCODA         CLOUDY    75  46  35 S22G30    29.94F
PELLSTON       CLOUDY    69  56  62 SW7       29.87F
TRAVERSE CITY  LGT RAIN  66  58  75 S9G18     29.87R
LUDINGTON      RAIN      63  60  91 S14G22    29.88F
$$
MIZ007>008-015-282100-
EASTERN UPPER MICHIGAN

CITY           SKY/WX    TMP DP  RH WIND       PRES   REMARKS
KINROSS        CLOUDY    72  53  51 S9        29.86F
MACKINAC ISLAN CLOUDY    71  54  54 S9        29.85F
NEWBERRY       CLOUDY    65  56  71 S15G21    29.86R
S. S. MARIE    CLOUDY    75  53  46 S12       29.85F
$$
MIZ004>006-011>014-085-282100-
CENTRAL UPPER MICHIGAN

CITY           SKY/WX    TMP DP  RH WIND       PRES   REMARKS
MANISTIQUE     CLOUDY    59  56  89 S12G24    29.84F
ESCANABA       LGT RAIN  62  60  93 S8        29.79F
MENOMINEE      LGT RAIN  63  61  94 S9        29.78F
SAWYER-GWINN   LGT RAIN  61  57  88 S13         N/A
$$
MIZ001>003-009>011-084-282100-
WESTERN UPPER MICHIGAN

CITY           SKY/WX    TMP DP  RH WIND       PRES   REMARKS
IRON MOUNTAIN  LGT RAIN  63  59  87 SE8       29.75F
HOUGHTON       RAIN      61  58  90 S9        29.71S FOG
COPPER HARBOR    N/A     68  54  60 S7G22     29.69F
IRONWOOD       LGT RAIN  63  61  93 SE10      29.64F
$$

ABBREVIATIONS USED IN REMARKS
   TC - TEMPERATURE IN CELSIUS
  WCI - WIND CHILL INDEX
   HX - HEAT INDEX
  VSB - VISIBILITY





USA.gov is the U.S. government's official web portal to all federal, state and local government web resources and services.